Fort Stewart, GA

10:34 PM EST on December 05, 2016 (GMT -0500)
Wright Army Air Field

Weather History for KLHW - December, 2012

Change the Weather History Date:

Sunday, December 9, 2012

  Actual Average Record
Temperature  
Mean Temperature 65 °F -  
Max Temperature 75 °F 67 °F 83 °F (1978)
Min Temperature 55 °F 45 °F 20 °F (2006)
Growing Degree Days 15 (Base 50)    
Moisture  
Dew Point 61 °F    
Average Humidity 98    
Maximum Humidity 100    
Minimum Humidity 69    
Precipitation  
Precipitation 0.00 in - - ()
Sea Level Pressure  
Sea Level Pressure 30.06 in    
Wind  
Wind Speed 0 mph (NNE)    
Max Wind Speed 6 mph    
Max Gust Speed -    
Visibility 2 miles    
Events Fog    
Averages and records for this station are not official NWS values.
T = Trace of Precipitation, MM = Missing Value Source: NWS Daily Summary

Daily Weather History Graph

Daily Weather History Graph

Search for Another Location

Airport or City:

Trip Planner

Search our weather history database for the weather conditions in past years. The results will help you decide how hot, cold, wet, or windy it might be!

Date:

Astronomy

Dec. 09, 2012 Rise Set
Actual Time 7:15 AM EST 5:22 PM EST
Civil Twilight 6:48 AM EST 5:49 PM EST
Nautical Twilight 6:18 AM EST 6:19 PM EST
Astronomical Twilight 5:48 AM EST 6:49 PM EST
Moon 2:57 AM EST (12/9) 2:19 PM EST (12/9)
Length of Visible Light 11h 00m
Length of Day
10h 07m
Waning Crescent, 19% of the Moon is Illuminated
Dec 9
Waning Crescent
Dec 13
New
Dec 20
First Quarter
Dec 28
Full
Jan 4
Last Quarter

Hourly Weather History & Observations

Time (EST) Temp. Dew Point Humidity Pressure Visibility Wind Dir Wind Speed Gust Speed Precip Events Conditions
12:01 AM 59.0 °F 59.0 °F 100% 30.09 in 1.2 mi Calm Calm - N/A   Overcast
12:04 AM 59.0 °F 59.0 °F 100% 30.09 in 1.0 mi Calm Calm - N/A   Mist
12:05 AM 59.0 °F 59.0 °F 100% 30.09 in 1.2 mi Calm Calm - N/A   Overcast
12:18 AM 59.0 °F 59.0 °F 100% 30.09 in 1.0 mi Calm Calm - N/A   Mist
12:22 AM 59.0 °F 59.0 °F 100% 30.09 in 0.8 mi Calm Calm - N/A   Mist
12:25 AM 59.0 °F 59.0 °F 100% 30.09 in 0.8 mi Calm Calm - N/A   Mist
12:26 AM 59.0 °F 59.0 °F 100% 30.09 in 0.5 mi Calm Calm - N/A Fog Fog
12:55 AM 58.5 °F 58.5 °F 100% 30.09 in 0.5 mi Calm Calm - N/A Fog Fog
1:55 AM 58.5 °F 58.5 °F 100% 30.08 in 0.5 mi Calm Calm - N/A Fog Fog
2:55 AM 59.0 °F 59.0 °F 100% 30.08 in 0.5 mi Calm Calm - N/A Fog Fog
3:23 AM 59.0 °F 59.0 °F 100% 30.07 in 0.8 mi Calm Calm - N/A   Mostly Cloudy
3:27 AM 59.0 °F 59.0 °F 100% 30.07 in 0.8 mi Calm Calm - N/A   Mostly Cloudy
3:31 AM 59.0 °F 59.0 °F 100% 30.07 in 1.0 mi Calm Calm - N/A   Overcast
3:33 AM 59.0 °F 59.0 °F 100% 30.07 in 0.8 mi Calm Calm - N/A   Overcast
3:34 AM 59.0 °F 59.0 °F 100% 30.07 in 1.0 mi Calm Calm - N/A   Overcast
3:36 AM 59.0 °F 59.0 °F 100% 30.07 in 1.0 mi Calm Calm - N/A   Overcast
3:41 AM 59.0 °F 59.0 °F 100% 30.07 in 1.2 mi Calm Calm - N/A   Overcast
3:46 AM 59.0 °F 59.0 °F 100% 30.07 in 1.5 mi Calm Calm - N/A   Overcast
3:47 AM 59.0 °F 59.0 °F 100% 30.07 in 1.8 mi Calm Calm - N/A   Overcast
3:48 AM 59.0 °F 59.0 °F 100% 30.07 in 2.0 mi Calm Calm - N/A   Overcast
3:53 AM 59.0 °F 59.0 °F 100% 30.07 in 3.0 mi Calm Calm - N/A   Overcast
3:55 AM 59.4 °F 59.4 °F 100% 30.07 in 3.0 mi Calm Calm - N/A   Overcast
4:27 AM 59.0 °F 59.0 °F 100% 30.07 in 2.5 mi Calm Calm - N/A   Scattered Clouds
4:28 AM 59.0 °F 59.0 °F 100% 30.07 in 1.8 mi Calm Calm - N/A   Scattered Clouds
4:29 AM 59.0 °F 59.0 °F 100% 30.07 in 1.5 mi Calm Calm - N/A   Scattered Clouds
4:30 AM 59.0 °F 59.0 °F 100% 30.07 in 1.2 mi Calm Calm - N/A   Scattered Clouds
4:31 AM 57.2 °F 57.2 °F 100% 30.07 in 1.0 mi Calm Calm - N/A   Scattered Clouds
4:36 AM 57.2 °F 57.2 °F 100% 30.07 in 0.8 mi Calm Calm - N/A   Partly Cloudy
4:37 AM 57.2 °F 57.2 °F 100% 30.07 in 1.0 mi Calm Calm - N/A   Partly Cloudy
4:39 AM 57.2 °F 57.2 °F 100% 30.07 in 1.2 mi Calm Calm - N/A   Partly Cloudy
4:40 AM 57.2 °F 57.2 °F 100% 30.07 in 1.5 mi Calm Calm - N/A   Partly Cloudy
4:41 AM 57.2 °F 57.2 °F 100% 30.07 in 1.8 mi Calm Calm - N/A   Partly Cloudy
4:42 AM 59.0 °F 59.0 °F 100% 30.07 in 2.0 mi Calm Calm - N/A   Clear
4:44 AM 59.0 °F 59.0 °F 100% 30.07 in 3.0 mi Calm Calm - N/A   Clear
4:55 AM 57.7 °F 57.7 °F 100% 30.07 in 3.0 mi Calm Calm - N/A   Scattered Clouds
4:56 AM 57.2 °F 57.2 °F 100% 30.07 in 2.5 mi Calm Calm - N/A   Scattered Clouds
4:57 AM 57.2 °F 57.2 °F 100% 30.07 in 2.0 mi Calm Calm - N/A   Mostly Cloudy
4:59 AM 57.2 °F 57.2 °F 100% 30.07 in 1.5 mi Calm Calm - N/A   Mostly Cloudy
5:00 AM 57.2 °F 57.2 °F 100% 30.07 in 1.2 mi Calm Calm - N/A   Mostly Cloudy
5:01 AM 57.2 °F 57.2 °F 100% 30.07 in 1.0 mi Calm Calm - N/A   Mostly Cloudy
5:02 AM 57.2 °F 57.2 °F 100% 30.07 in 0.8 mi Calm Calm - N/A   Mostly Cloudy
5:04 AM 57.2 °F 57.2 °F 100% 30.07 in 0.5 mi Calm Calm - N/A Fog Fog
5:08 AM 57.2 °F 57.2 °F 100% 30.08 in 0.5 mi Calm Calm - N/A Fog Fog
5:09 AM 57.2 °F 57.2 °F 100% 30.08 in 0.5 mi Calm Calm - N/A Fog Fog
5:12 AM 57.2 °F 57.2 °F 100% 30.08 in 0.8 mi Calm Calm - N/A   Overcast
5:14 AM 57.2 °F 57.2 °F 100% 30.08 in 1.0 mi Calm Calm - N/A   Overcast
5:15 AM 57.2 °F 57.2 °F 100% 30.08 in 1.5 mi Calm Calm - N/A   Overcast
5:16 AM 57.2 °F 57.2 °F 100% 30.08 in 2.0 mi Calm Calm - N/A   Overcast
5:17 AM 57.2 °F 57.2 °F 100% 30.07 in 3.0 mi Calm Calm - N/A   Overcast
5:55 AM 58.5 °F 58.5 °F 100% 30.08 in 5.0 mi Calm Calm - N/A   Overcast
5:56 AM 59.0 °F 59.0 °F 100% 30.08 in 5.0 mi Calm Calm - N/A   Overcast
5:57 AM 59.0 °F 59.0 °F 100% 30.08 in 4.0 mi Calm Calm - N/A   Overcast
6:02 AM 57.2 °F 57.2 °F 100% 30.08 in 4.0 mi Calm Calm - N/A   Overcast
6:05 AM 57.2 °F 57.2 °F 100% 30.08 in 4.0 mi Calm Calm - N/A   Overcast
6:14 AM 57.2 °F 57.2 °F 100% 30.09 in 4.0 mi Calm Calm - N/A   Mostly Cloudy
6:29 AM 57.2 °F 57.2 °F 100% 30.09 in 6.0 mi Calm Calm - N/A   Scattered Clouds
6:55 AM 56.8 °F 56.8 °F 100% 30.09 in 2.5 mi Calm Calm - N/A   Partly Cloudy
6:56 AM 57.2 °F 57.2 °F 100% 30.09 in 2.0 mi Calm Calm - N/A   Partly Cloudy
7:00 AM 57.2 °F 57.2 °F 100% 30.09 in 1.8 mi Calm Calm - N/A   Partly Cloudy
7:01 AM 57.2 °F 57.2 °F 100% 30.09 in 1.5 mi Calm Calm - N/A   Partly Cloudy
7:02 AM 57.2 °F 57.2 °F 100% 30.09 in 1.2 mi NNW 3.5 mph - N/A   Clear
7:03 AM 57.2 °F 57.2 °F 100% 30.09 in 1.2 mi NNW 3.5 mph - N/A   Clear
7:04 AM 57.2 °F 57.2 °F 100% 30.09 in 1.2 mi NNW 3.5 mph - N/A   Clear
7:07 AM 57.2 °F 57.2 °F 100% 30.09 in 1.5 mi Calm Calm - N/A   Clear
7:11 AM 55.4 °F 55.4 °F 100% 30.10 in 1.8 mi West 3.5 mph - N/A   Clear
7:12 AM 55.4 °F 55.4 °F 100% 30.10 in 2.0 mi Calm Calm - N/A   Partly Cloudy
7:16 AM 57.2 °F 57.2 °F 100% 30.10 in 3.0 mi Calm Calm - N/A   Scattered Clouds
7:21 AM 57.2 °F 57.2 °F 100% 30.10 in 4.0 mi Calm Calm - N/A   Mostly Cloudy
7:48 AM 57.2 °F 57.2 °F 100% 30.11 in 6.0 mi NNW 3.5 mph - N/A   Overcast
7:55 AM 57.9 °F 57.9 °F 100% 30.12 in 6.0 mi Calm Calm - N/A   Overcast
7:57 AM 57.2 °F 57.2 °F 100% 30.12 in 6.0 mi Calm Calm - N/A   Overcast
8:04 AM 59.0 °F 59.0 °F 100% 30.12 in 2.5 mi Calm Calm - N/A   Overcast
8:06 AM 59.0 °F 59.0 °F 100% 30.12 in 1.5 mi Calm Calm - N/A   Overcast
8:08 AM 59.0 °F 59.0 °F 100% 30.12 in 1.0 mi North 3.5 mph - N/A   Overcast
8:09 AM 59.0 °F 59.0 °F 100% 30.12 in 0.8 mi North 3.5 mph - N/A   Overcast
8:11 AM 59.0 °F 59.0 °F 100% 30.12 in 0.5 mi North 3.5 mph - N/A Fog Fog
8:13 AM 59.0 °F 59.0 °F 100% 30.12 in 0.5 mi NNW 3.5 mph - N/A Fog Fog
8:18 AM 59.0 °F 59.0 °F 100% 30.12 in 0.2 mi NNW 3.5 mph - N/A Fog Fog
8:50 AM 59.0 °F 59.0 °F 100% 30.13 in 0.2 mi Calm Calm - N/A Fog Fog
8:55 AM 59.9 °F 59.9 °F 100% 30.13 in 0.5 mi Calm Calm - N/A Fog Fog
8:58 AM 60.8 °F 60.8 °F 100% 30.13 in 0.5 mi Calm Calm - N/A Fog Fog
8:59 AM 60.8 °F 60.8 °F 100% 30.13 in 0.8 mi Calm Calm - N/A   Mist
9:00 AM 60.8 °F 60.8 °F 100% 30.13 in 0.8 mi Calm Calm - N/A   Mist
9:03 AM 60.8 °F 60.8 °F 100% 30.13 in 1.0 mi Calm Calm - N/A   Mist
9:05 AM 60.8 °F 60.8 °F 100% 30.13 in 1.2 mi Calm Calm - N/A   Overcast
9:07 AM 60.8 °F 60.8 °F 100% 30.13 in 1.5 mi Calm Calm - N/A   Overcast
9:08 AM 60.8 °F 60.8 °F 100% 30.13 in 1.8 mi Calm Calm - N/A   Overcast
9:10 AM 60.8 °F 60.8 °F 100% 30.13 in 2.0 mi Calm Calm - N/A   Overcast
9:15 AM 60.8 °F 60.8 °F 100% 30.14 in 3.0 mi Calm Calm - N/A   Overcast
9:35 AM 62.6 °F 62.6 °F 100% 30.14 in 5.0 mi Calm Calm - N/A   Overcast
9:55 AM 62.4 °F 62.4 °F 100% 30.14 in 4.0 mi Calm Calm - N/A   Overcast
10:47 AM 64.4 °F 64.4 °F 100% 30.13 in 6.0 mi Calm Calm - N/A   Overcast
10:55 AM 64.0 °F 64.0 °F 100% 30.13 in 6.0 mi Calm Calm - N/A   Overcast
11:12 AM 66.2 °F 66.2 °F 100% 30.12 in 6.0 mi Calm Calm - N/A   Overcast
11:40 AM 68.0 °F 68.0 °F 100% 30.11 in 6.0 mi Calm Calm - N/A   Overcast
11:55 AM 68.5 °F 68.5 °F 100% 30.10 in 5.0 mi Calm Calm - N/A   Overcast
12:05 PM 68.0 °F 68.0 °F 100% 30.09 in 4.0 mi Calm Calm - N/A   Overcast
12:55 PM 72.7 °F 65.7 °F 79% 30.07 in 5.0 mi ESE 4.6 mph - N/A   Haze
1:21 PM 73.4 °F 64.4 °F 73% 30.05 in 5.0 mi SSE 5.8 mph - N/A   Haze
1:31 PM 75.2 °F 66.2 °F 73% 30.05 in 5.0 mi Variable 4.6 mph - N/A   Haze
1:41 PM 75.2 °F 64.4 °F 69% 30.04 in 5.0 mi Calm Calm - N/A   Haze
1:54 PM 75.2 °F 64.4 °F 69% 30.04 in 5.0 mi Calm Calm - N/A   Haze
1:55 PM 75.2 °F 64.6 °F 69% 30.04 in 4.0 mi Calm Calm - N/A   Haze
2:03 PM 75.2 °F 64.4 °F 69% 30.04 in 4.0 mi Variable 3.5 mph - N/A   Haze
2:11 PM 75.2 °F 64.4 °F 69% 30.04 in 5.0 mi ESE 5.8 mph - N/A   Haze
2:50 PM 75.2 °F 64.4 °F 69% 30.03 in 5.0 mi WSW 3.5 mph - N/A   Haze
2:55 PM 75.6 °F 64.6 °F 69% 30.03 in 5.0 mi Variable 3.5 mph - N/A   Haze
3:55 PM 74.7 °F 65.1 °F 72% 30.03 in 5.0 mi ESE 3.5 mph - N/A   Haze
3:58 PM 75.2 °F 64.4 °F 69% 30.03 in 5.0 mi SE 3.5 mph - N/A   Haze
4:55 PM 72.5 °F 66.9 °F 83% 30.03 in 5.0 mi Calm Calm - N/A   Haze
5:40 PM 71.6 °F 66.2 °F 83% 30.03 in 6.0 mi East 4.6 mph - N/A   Haze
5:42 PM 71.6 °F 66.2 °F 83% 30.03 in 6.0 mi East 3.5 mph - N/A   Haze
5:55 PM 70.0 °F 66.7 °F 89% 30.03 in 6.0 mi ESE 3.5 mph - N/A   Overcast
6:55 PM 68.4 °F 67.1 °F 96% 30.04 in 4.0 mi WNW 3.5 mph - N/A   Overcast
7:00 PM 68.0 °F 68.0 °F 100% 30.04 in 5.0 mi Calm Calm - N/A   Overcast
7:55 PM 67.8 °F 67.1 °F 98% 30.04 in 10.0 mi Calm Calm - N/A   Overcast
8:55 PM 65.7 °F 65.7 °F 100% 30.03 in 10.0 mi Calm Calm - N/A   Mostly Cloudy
9:18 PM 64.4 °F 64.4 °F 100% 30.03 in 6.0 mi Calm Calm - N/A   Mostly Cloudy
9:22 PM 64.4 °F 64.4 °F 100% 30.03 in 2.5 mi Calm Calm - N/A   Mostly Cloudy
9:26 PM 64.4 °F 64.4 °F 100% 30.03 in 1.5 mi Calm Calm - N/A   Scattered Clouds
9:27 PM 64.4 °F 64.4 °F 100% 30.03 in 1.2 mi Calm Calm - N/A   Scattered Clouds
9:30 PM 64.4 °F 64.4 °F 100% 30.03 in 1.5 mi Calm Calm - N/A   Mostly Cloudy
9:32 PM 64.4 °F 64.4 °F 100% 30.03 in 1.5 mi Calm Calm - N/A   Mostly Cloudy
9:33 PM 64.4 °F 64.4 °F 100% 30.03 in 1.8 mi Calm Calm - N/A   Scattered Clouds
9:36 PM 64.4 °F 64.4 °F 100% 30.03 in 2.0 mi Calm Calm - N/A   Scattered Clouds
9:38 PM 64.4 °F 64.4 °F 100% 30.03 in 1.8 mi Calm Calm - N/A   Scattered Clouds
9:39 PM 64.4 °F 64.4 °F 100% 30.03 in 1.5 mi Calm Calm - N/A   Scattered Clouds
9:40 PM 64.4 °F 64.4 °F 100% 30.03 in 1.2 mi Calm Calm - N/A   Scattered Clouds
9:41 PM 64.4 °F 64.4 °F 100% 30.03 in 1.0 mi Calm Calm - N/A   Scattered Clouds
9:43 PM 64.4 °F 64.4 °F 100% 30.03 in 0.8 mi Calm Calm - N/A   Partly Cloudy
9:44 PM 64.4 °F 64.4 °F 100% 30.03 in 0.8 mi Calm Calm - N/A   Partly Cloudy
9:45 PM 64.4 °F 64.4 °F 100% 30.03 in 0.5 mi Calm Calm - N/A Fog Fog
9:47 PM 64.4 °F 64.4 °F 100% 30.03 in 0.8 mi Calm Calm - N/A   Partly Cloudy
9:49 PM 64.4 °F 64.4 °F 100% 30.03 in 0.8 mi Calm Calm - N/A   Partly Cloudy
9:51 PM 64.4 °F 64.4 °F 100% 30.03 in 1.0 mi Calm Calm - N/A   Partly Cloudy
9:52 PM 64.4 °F 64.4 °F 100% 30.03 in 1.2 mi Calm Calm - N/A   Scattered Clouds
9:53 PM 64.4 °F 64.4 °F 100% 30.03 in 1.5 mi Calm Calm - N/A   Scattered Clouds
9:54 PM 64.4 °F 64.4 °F 100% 30.03 in 2.0 mi Calm Calm - N/A   Scattered Clouds
9:55 PM 64.2 °F 64.2 °F 100% 30.03 in 3.0 mi Calm Calm - N/A   Partly Cloudy
10:11 PM 62.6 °F 62.6 °F 100% 30.03 in 4.0 mi Calm Calm - N/A   Mostly Cloudy
10:14 PM 62.6 °F 62.6 °F 100% 30.03 in 2.5 mi Calm Calm - N/A   Mostly Cloudy
10:25 PM 62.6 °F 62.6 °F 100% 30.03 in 1.8 mi Calm Calm - N/A   Mostly Cloudy
10:26 PM 62.6 °F 62.6 °F 100% 30.03 in 1.5 mi Calm Calm - N/A   Mostly Cloudy
10:27 PM 62.6 °F 62.6 °F 100% 30.03 in 1.2 mi Calm Calm - N/A   Mostly Cloudy
10:28 PM 62.6 °F 62.6 °F 100% 30.03 in 1.0 mi Calm Calm - N/A   Mostly Cloudy
10:29 PM 62.6 °F 62.6 °F 100% 30.03 in 0.8 mi Calm Calm - N/A   Scattered Clouds
10:31 PM 62.6 °F 62.6 °F 100% 30.03 in 0.8 mi Calm Calm - N/A   Scattered Clouds
10:36 PM 62.6 °F 62.6 °F 100% 30.03 in 1.0 mi Calm Calm - N/A   Scattered Clouds
10:39 PM 62.6 °F 62.6 °F 100% 30.03 in 1.2 mi Calm Calm - N/A   Scattered Clouds
10:40 PM 62.6 °F 62.6 °F 100% 30.03 in 1.0 mi Calm Calm - N/A   Scattered Clouds
10:41 PM 62.6 °F 62.6 °F 100% 30.03 in 1.2 mi Calm Calm - N/A   Scattered Clouds
10:43 PM 62.6 °F 62.6 °F 100% 30.03 in 1.0 mi Calm Calm - N/A   Scattered Clouds
10:47 PM 62.6 °F 62.6 °F 100% 30.03 in 1.0 mi Calm Calm - N/A   Scattered Clouds
10:48 PM 62.6 °F 62.6 °F 100% 30.03 in 1.2 mi Calm Calm - N/A   Scattered Clouds
10:49 PM 62.6 °F 62.6 °F 100% 30.03 in 1.5 mi Calm Calm - N/A   Scattered Clouds
10:50 PM 62.6 °F 62.6 °F 100% 30.03 in 2.0 mi Calm Calm - N/A   Scattered Clouds
10:51 PM 62.6 °F 62.6 °F 100% 30.03 in 3.0 mi Calm Calm - N/A   Scattered Clouds
10:53 PM 62.6 °F 62.6 °F 100% 30.03 in 2.0 mi Calm Calm - N/A   Scattered Clouds
10:54 PM 62.6 °F 62.6 °F 100% 30.03 in 1.5 mi Calm Calm - N/A   Scattered Clouds
10:55 PM 62.8 °F 62.8 °F 100% 30.03 in 1.2 mi Calm Calm - N/A   Scattered Clouds
10:57 PM 62.6 °F 62.6 °F 100% 30.02 in 1.0 mi Calm Calm - N/A   Mostly Cloudy
11:00 PM 62.6 °F 62.6 °F 100% 30.02 in 0.8 mi Calm Calm - N/A   Mostly Cloudy
11:01 PM 62.6 °F 62.6 °F 100% 30.02 in 0.8 mi Calm Calm - N/A   Mostly Cloudy
11:05 PM 62.6 °F 62.6 °F 100% 30.02 in 0.8 mi Calm Calm - N/A   Mostly Cloudy
11:07 PM 62.6 °F 62.6 °F 100% 30.02 in 0.8 mi Calm Calm - N/A   Mostly Cloudy
11:09 PM 62.6 °F 62.6 °F 100% 30.02 in 0.5 mi Calm Calm - N/A Fog Fog
11:12 PM 62.6 °F 62.6 °F 100% 30.02 in 0.5 mi Calm Calm - N/A Fog Fog
11:14 PM 62.6 °F 62.6 °F 100% 30.02 in 0.8 mi Calm Calm - N/A   Mostly Cloudy
11:24 PM 62.6 °F 62.6 °F 100% 30.01 in 0.5 mi Calm Calm - N/A Fog Fog
11:27 PM 62.6 °F 62.6 °F 100% 30.01 in 0.5 mi Calm Calm - N/A Fog Fog
11:37 PM 62.6 °F 62.6 °F 100% 30.01 in 0.5 mi Calm Calm - N/A Fog Fog
11:48 PM 62.6 °F 62.6 °F 100% 30.00 in 0.5 mi Calm Calm - N/A Fog Fog
11:54 PM 62.6 °F 62.6 °F 100% 30.00 in 0.8 mi Calm Calm - N/A   Mist
11:55 PM 62.4 °F 62.4 °F 100% 30.00 in 0.8 mi Calm Calm - N/A   Mist
11:58 PM 62.6 °F 62.6 °F 100% 30.00 in 0.8 mi Calm Calm - N/A   Scattered Clouds